When you browse on this site, cookies collect data to enhance your experience and personalize the content and advertising you see.
Visit our Privacy Policy to learn more. By continuing to use the site, you agree to this use of cookies and data.
  • In Netherlands
  • List of Countries
  • For 7 days
  • Water Temperature
  • Weather Map
  • Weather Widgets
  • user-avatar
    Login

    Hourly Weather Liverpool

    Today, 19 September, Thursday

    Time Temperature Precipitation Wind Pressure Humidity
    00:00 +12°C° 0 mm 1 mps 772 mmHg 83%
    01:00 +12°C° 0 mm 1 mps 772 mmHg 84%
    02:00 +12°C° 0 mm 1 mps 772 mmHg 84%
    03:00 +12°C° 0 mm 1 mps 771 mmHg 84%
    04:00 +12°C° 0 mm 1 mps 771 mmHg 85%
    05:00 +11°C° 0 mm 1 mps 772 mmHg 85%
    06:00 +11°C° 0 mm 1 mps 772 mmHg 85%
    07:00 +12°C° 0 mm 0 mps 772 mmHg 80%
    08:00 +14°C° 0 mm 0 mps 772 mmHg 74%
    09:00 +15°C° 0 mm 0 mps 772 mmHg 69%
    10:00 +17°C° 0 mm 0 mps 772 mmHg 66%
    11:00 +20°C° 0 mm 1 mps 772 mmHg 62%
    12:00 +21°C° 0 mm 1 mps 772 mmHg 59%
    13:00 +21°C° 0 mm 1 mps 771 mmHg 58%
    14:00 +21°C° 0 mm 1 mps 771 mmHg 58%
    15:00 +21°C° 0 mm 1 mps 771 mmHg 58%
    16:00 +20°C° 0 mm 1 mps 771 mmHg 64%
    17:00 +19°C° 0 mm 1 mps 771 mmHg 70%
    18:00 +16°C° 0 mm 1 mps 770 mmHg 76%
    19:00 +16°C° 0 mm 1 mps 771 mmHg 78%
    20:00 +15°C° 0 mm 1 mps 771 mmHg 80%
    21:00 +13°C° 0 mm 0 mps 771 mmHg 83%
    22:00 +14°C° 0 mm 1 mps 771 mmHg 83%
    23:00 +14°C° 0 mm 1 mps 771 mmHg 84%

    Tomorrow, 20 September, Friday

    Time Temperature Precipitation Wind Pressure Humidity
    00:00 +14°C° 0 mm 1 mps 771 mmHg 84%
    01:00 +13°C° 0 mm 1 mps 770 mmHg 85%
    02:00 +13°C° 0 mm 2 mps 770 mmHg 86%
    03:00 +13°C° 0 mm 2 mps 769 mmHg 86%
    04:00 +13°C° 0 mm 2 mps 769 mmHg 86%
    05:00 +12°C° 0 mm 3 mps 769 mmHg 87%
    06:00 +11°C° 0 mm 3 mps 768 mmHg 87%
    07:00 +13°C° 0 mm 3 mps 768 mmHg 82%
    08:00 +14°C° 0 mm 4 mps 768 mmHg 77%
    09:00 +17°C° 0 mm 4 mps 768 mmHg 71%
    10:00 +18°C° 0 mm 4 mps 767 mmHg 68%
    11:00 +19°C° 0 mm 4 mps 767 mmHg 65%
    12:00 +20°C° 0 mm 5 mps 766 mmHg 61%
    13:00 +20°C° 0 mm 5 mps 766 mmHg 61%
    14:00 +21°C° 0 mm 5 mps 765 mmHg 60%
    15:00 +21°C° 0 mm 5 mps 764 mmHg 60%
    16:00 +20°C° 0 mm 5 mps 764 mmHg 63%
    17:00 +19°C° 0 mm 5 mps 763 mmHg 67%
    18:00 +17°C° 0 mm 5 mps 763 mmHg 71%
    19:00 +16°C° 0 mm 5 mps 763 mmHg 70%
    20:00 +15°C° 0 mm 6 mps 763 mmHg 69%
    21:00 +15°C° 0 mm 6 mps 762 mmHg 68%
    22:00 +14°C° 0 mm 6 mps 762 mmHg 70%
    23:00 +13°C° 0 mm 6 mps 762 mmHg 72%

    Day after tomorrow, 21 September, Saturday

    Time Temperature Precipitation Wind Pressure Humidity
    00:00 +12°C° 0 mm 7 mps 761 mmHg 74%
    01:00 +13°C° 0 mm 6 mps 761 mmHg 75%
    02:00 +11°C° 0 mm 6 mps 760 mmHg 77%
    03:00 +11°C° 0 mm 6 mps 760 mmHg 79%
    04:00 +11°C° 0 mm 6 mps 759 mmHg 78%
    05:00 +11°C° 0 mm 7 mps 758 mmHg 77%
    06:00 +11°C° 0 mm 7 mps 758 mmHg 76%
    07:00 +12°C° 0 mm 7 mps 757 mmHg 72%
    08:00 +14°C° 0 mm 7 mps 757 mmHg 67%
    09:00 +15°C° 0 mm 8 mps 757 mmHg 63%
    10:00 +16°C° 0 mm 8 mps 756 mmHg 61%
    11:00 +18°C° 0 mm 7 mps 756 mmHg 58%
    12:00 +20°C° 0 mm 7 mps 755 mmHg 55%
    13:00 +21°C° 0 mm 7 mps 755 mmHg 55%
    14:00 +21°C° 0 mm 7 mps 754 mmHg 56%
    15:00 +22°C° 0 mm 7 mps 753 mmHg 57%
    16:00 +21°C° 0.1 mm 7 mps 753 mmHg 60%
    17:00 +20°C° 0.1 mm 6 mps 753 mmHg 63%
    18:00 +19°C° 0.1 mm 6 mps 753 mmHg 66%
    19:00 +19°C° 0.1 mm 6 mps 752 mmHg 67%
    20:00 +19°C° 0.1 mm 6 mps 752 mmHg 68%
    21:00 +17°C° 0.1 mm 5 mps 752 mmHg 70%
    22:00 +17°C° 0.1 mm 5 mps 752 mmHg 71%
    23:00 +17°C° 0.1 mm 5 mps 751 mmHg 73%

    22 September, Sunday

    Time Temperature Precipitation Wind Pressure Humidity
    00:00 +17°C° 0.1 mm 5 mps 751 mmHg 74%
    01:00 +16°C° 0 mm 5 mps 750 mmHg 77%
    02:00 +16°C° 0 mm 5 mps 750 mmHg 80%
    03:00 +16°C° 0 mm 5 mps 750 mmHg 83%
    04:00 +15°C° 0.1 mm 4 mps 749 mmHg 85%
    05:00 +15°C° 0.1 mm 4 mps 749 mmHg 87%
    06:00 +15°C° 0.1 mm 4 mps 749 mmHg 89%
    07:00 +16°C° 0 mm 5 mps 749 mmHg 86%
    08:00 +17°C° 0 mm 5 mps 748 mmHg 84%
    09:00 +19°C° 0 mm 6 mps 748 mmHg 81%
    10:00 +19°C° 0.7 mm 5 mps 749 mmHg 83%
    11:00 +19°C° 0.7 mm 4 mps 749 mmHg 85%
    12:00 +19°C° 0.7 mm 4 mps 749 mmHg 86%
    13:00 +19°C° 0.2 mm 3 mps 749 mmHg 83%
    14:00 +19°C° 0.2 mm 3 mps 749 mmHg 79%
    15:00 +19°C° 0.2 mm 2 mps 749 mmHg 76%
    16:00 +19°C° 0.2 mm 2 mps 749 mmHg 78%
    17:00 +18°C° 0.2 mm 2 mps 749 mmHg 81%
    18:00 +17°C° 0.2 mm 2 mps 749 mmHg 83%
    19:00 +16°C° 0.1 mm 2 mps 750 mmHg 84%
    20:00 +16°C° 0.1 mm 2 mps 750 mmHg 85%
    21:00 +14°C° 0.1 mm 3 mps 750 mmHg 86%
    22:00 +14°C° 0 mm 3 mps 750 mmHg 87%
    23:00 +13°C° 0 mm 3 mps 751 mmHg 88%

    23 September, Monday

    Time Temperature Precipitation Wind Pressure Humidity
    00:00 +13°C° 0 mm 3 mps 751 mmHg 89%
    01:00 +13°C° 0 mm 3 mps 751 mmHg 89%
    02:00 +12°C° 0 mm 3 mps 752 mmHg 90%
    03:00 +12°C° 0 mm 3 mps 752 mmHg 90%
    04:00 +12°C° 0 mm 3 mps 752 mmHg 90%
    05:00 +12°C° 0 mm 3 mps 752 mmHg 90%
    06:00 +13°C° 0 mm 2 mps 753 mmHg 91%
    07:00 +14°C° 0 mm 2 mps 753 mmHg 87%
    08:00 +15°C° 0 mm 2 mps 753 mmHg 84%
    09:00 +16°C° 0 mm 2 mps 754 mmHg 80%
    10:00 +17°C° 0 mm 2 mps 754 mmHg 75%
    11:00 +17°C° 0 mm 2 mps 754 mmHg 69%
    12:00 +18°C° 0 mm 2 mps 754 mmHg 63%
    13:00 +19°C° 0 mm 2 mps 754 mmHg 61%
    14:00 +19°C° 0 mm 3 mps 753 mmHg 60%
    15:00 +19°C° 0 mm 3 mps 753 mmHg 58%
    16:00 +18°C° 0 mm 3 mps 753 mmHg 63%
    17:00 +17°C° 0 mm 4 mps 753 mmHg 68%
    18:00 +17°C° 0 mm 4 mps 752 mmHg 73%
    19:00 +15°C° 0 mm 4 mps 752 mmHg 77%
    20:00 +15°C° 0 mm 5 mps 753 mmHg 81%
    21:00 +15°C° 0 mm 5 mps 753 mmHg 85%
    22:00 +15°C° 0.1 mm 5 mps 753 mmHg 87%
    23:00 +15°C° 0.1 mm 5 mps 752 mmHg 89%

    24 September, Tuesday

    Time Temperature Precipitation Wind Pressure Humidity
    00:00 +15°C° 0.1 mm 4 mps 752 mmHg 91%
    01:00 +15°C° 0 mm 4 mps 752 mmHg 92%
    02:00 +14°C° 0 mm 4 mps 752 mmHg 93%
    03:00 +14°C° 0 mm 4 mps 752 mmHg 94%
    04:00 +14°C° 0.1 mm 4 mps 751 mmHg 94%
    05:00 +14°C° 0.1 mm 4 mps 751 mmHg 94%
    06:00 +14°C° 0.1 mm 4 mps 751 mmHg 94%
    07:00 +15°C° 0 mm 5 mps 750 mmHg 92%
    08:00 +16°C° 0 mm 5 mps 749 mmHg 89%
    09:00 +17°C° 0 mm 6 mps 749 mmHg 86%
    10:00 +17°C° 0.4 mm 6 mps 748 mmHg 87%
    11:00 +17°C° 0.4 mm 7 mps 747 mmHg 87%
    12:00 +17°C° 0.4 mm 7 mps 746 mmHg 88%
    13:00 +16°C° 6.3 mm 7 mps 745 mmHg 89%
    14:00 +16°C° 6.3 mm 7 mps 745 mmHg 91%
    15:00 +15°C° 6.3 mm 7 mps 744 mmHg 92%
    16:00 +15°C° 0.7 mm 6 mps 744 mmHg 90%
    17:00 +15°C° 0.7 mm 6 mps 745 mmHg 88%
    18:00 +15°C° 0.7 mm 5 mps 745 mmHg 86%
    19:00 +14°C° 0 mm 5 mps 745 mmHg 86%
    20:00 +14°C° 0 mm 4 mps 745 mmHg 86%
    21:00 +14°C° 0 mm 4 mps 746 mmHg 86%
    22:00 +13°C° 0 mm 3 mps 746 mmHg 87%
    23:00 +13°C° 0 mm 3 mps 746 mmHg 89%
    Show more